Date String (YYYY-MM-DD hh:mm:ss) UTC,Instrument flags,absolute air pressure of the measurement (hPa),sample flow rate (lpm),inlet stack bypass flow (lpm),air temperature of the measurement (°C),ambient temperature measured by the external sensor (°C),aerosol sample conditioner tube jacket temperature (°C),OPC LED temperature (°C),internal box temperature (°C),relative humidity of the measurement (%),span deviation,mass concentration of particles derived from Lorenz-Mie calculation of OPC scattering (μg/m³),mass concentration of particles derived from Lorenz-Mie calculation of OPC scattering (μg/m³),mass concentration of particles derived from Lorenz-Mie calculation of OPC scattering (μg/m³)
DateTimeUTC,F1_M11,P_M11,Q1_M11,Q2_M11,T1_M11,T2_M11,T3_M11,T4_M11,T5_M11,U1_M11,ZSPAN_M11,X2_M11,X0_M11,X1_M11
2024-04-03 13:00:00,SystemResetWarning,0831.1,4.99,000.00,021.2,020.5,000.0,029.8,023.0,017.5,0000.0,0002.58,0004.37,0001.90
2024-04-03 13:01:00,SystemResetWarning,0831.1,4.99,000.00,021.2,020.5,000.0,029.8,023.0,017.5,0000.0,0002.53,0004.21,0001.88
2024-04-03 13:02:00,SystemResetWarning,0831.0,4.99,000.00,021.2,020.4,000.0,029.8,023.0,017.6,0000.0,0002.51,0004.20,0001.87
2024-04-03 13:03:00,SystemResetWarning,0831.1,5.01,000.00,021.2,020.4,000.0,029.8,023.0,017.3,0000.0,0002.50,0004.17,0001.87
2024-04-03 13:04:00,SystemResetWarning,0831.1,5.01,000.00,021.2,020.4,000.0,029.8,023.0,017.2,0000.0,0002.51,0004.16,0001.88
2024-04-03 13:05:00,SystemResetWarning,0831.1,5.00,000.00,021.2,020.4,000.0,029.8,023.0,017.4,0000.0,0002.49,0004.07,0001.90
2024-04-03 13:06:00,SystemResetWarning,0831.1,4.99,000.00,021.2,020.4,000.0,029.8,023.0,017.5,0000.0,0002.50,0004.03,0001.89
2024-04-03 13:07:00,SystemResetWarning,0831.1,4.99,000.00,021.2,020.4,000.0,029.8,023.0,017.6,0000.0,0002.56,0004.13,0001.89
2024-04-03 13:08:00,SystemResetWarning,0831.1,5.00,000.00,021.2,020.4,000.0,029.8,022.9,017.6,0000.0,0002.57,0004.09,0001.91
2024-04-03 13:09:00,SystemResetWarning,0831.0,5.02,000.00,021.2,020.4,000.0,029.7,022.9,017.5,0000.0,0002.54,0003.96,0001.91
2024-04-03 13:10:00,SystemResetWarning,0831.1,5.01,000.00,021.1,020.4,000.0,029.7,022.9,017.5,0000.0,0002.55,0003.76,0001.90
2024-04-03 13:11:00,SystemResetWarning,0831.1,4.99,000.00,021.1,020.4,000.0,029.7,022.9,017.5,0000.0,0002.55,0003.75,0001.90
2024-04-03 13:12:00,SystemResetWarning,0831.1,4.99,000.00,021.1,020.4,000.0,029.7,022.9,017.5,0000.0,0002.56,0003.86,0001.91
2024-04-03 13:13:00,SystemResetWarning,0831.0,5.01,000.00,021.1,020.4,000.0,029.7,022.9,017.5,0000.0,0002.58,0003.86,0001.92
2024-04-03 13:14:00,SystemResetWarning,0831.0,5.01,000.00,021.1,020.4,000.0,029.7,022.9,017.6,0000.0,0002.61,0003.96,0001.94
2024-04-03 13:15:00,SystemResetWarning,0831.0,5.01,000.00,021.1,020.3,000.0,029.7,022.9,017.7,0000.0,0002.62,0004.01,0001.92
2024-04-03 13:16:00,SystemResetWarning,0831.0,4.99,000.00,021.1,020.3,000.0,029.7,022.9,017.8,0000.0,0002.65,0004.22,0001.92
2024-04-03 13:17:00,SystemResetWarning,0830.9,4.99,000.00,021.1,020.3,000.0,029.7,022.9,017.8,0000.0,0002.62,0004.53,0001.92
2024-04-03 13:18:00,SystemResetWarning,0830.9,5.01,000.00,021.1,020.3,000.0,029.7,022.9,017.5,0000.0,0002.56,0004.42,0001.92
2024-04-03 13:19:00,SystemResetWarning,0830.9,5.01,000.00,021.1,020.3,000.0,029.7,022.9,017.5,0000.0,0002.55,0004.38,0001.92
2024-04-03 13:20:00,SystemResetWarning,0830.9,5.00,000.00,021.1,020.4,000.0,029.7,022.9,017.7,0000.0,0002.60,0004.50,0001.95
2024-04-03 13:21:00,SystemResetWarning,0830.9,4.99,000.00,021.1,020.4,000.0,029.7,022.9,017.7,0000.0,0002.59,0004.45,0001.96
2024-04-03 13:22:00,SystemResetWarning,0830.9,4.99,000.00,021.1,020.4,000.0,029.6,022.9,017.6,0000.0,0002.55,0004.30,0001.95
2024-04-03 13:23:00,SystemResetWarning,0830.9,4.99,000.00,021.1,020.3,000.0,029.6,022.9,017.8,0000.0,0002.55,0004.24,0001.96
2024-04-03 13:24:00,SystemResetWarning,0830.9,5.00,000.00,021.1,020.4,000.0,029.6,022.9,017.8,0000.0,0002.54,0004.28,0001.94
2024-04-03 13:25:00,SystemResetWarning,0830.9,5.01,000.00,021.1,020.4,000.0,029.6,022.9,018.1,0000.0,0002.53,0004.24,0001.93
2024-04-03 13:26:00,SystemResetWarning,0830.9,5.00,000.00,021.1,020.4,000.0,029.6,022.9,018.5,0000.0,0002.56,0004.38,0001.93
2024-04-03 13:27:00,SystemResetWarning,0830.9,4.99,000.00,021.1,020.4,000.0,029.6,022.9,018.4,0000.0,0002.57,0004.31,0001.92
2024-04-03 13:28:00,SystemResetWarning,0830.9,5.01,000.00,021.1,020.4,000.0,029.6,022.9,018.3,0000.0,0002.55,0003.93,0001.92
2024-04-03 13:29:00,SystemResetWarning,0830.9,5.01,000.00,021.1,020.4,000.0,029.6,022.9,018.0,0000.0,0002.51,0003.80,0001.92
2024-04-03 13:30:00,SystemResetWarning,0830.9,4.99,000.00,021.1,020.4,000.0,029.6,022.9,018.0,0000.0,0002.50,0004.13,0001.90
2024-04-03 13:31:00,SystemResetWarning,0830.9,4.99,000.00,021.1,020.4,000.0,029.6,022.9,017.9,0000.0,0002.48,0004.49,0001.90
2024-04-03 13:32:00,SystemResetWarning,0830.9,5.01,000.00,021.1,020.4,000.0,029.6,022.9,018.0,0000.0,0002.51,0004.56,0001.90
2024-04-03 13:33:00,SystemResetWarning,0830.9,5.02,000.00,021.1,020.4,000.0,029.6,022.9,018.3,0000.0,0002.56,0004.97,0001.92
2024-04-03 13:34:00,SystemResetWarning,0830.9,4.99,000.00,021.1,020.4,000.0,029.6,022.9,017.9,0000.0,0002.58,0005.31,0001.91
2024-04-03 13:35:00,SystemResetWarning,0830.9,4.99,000.00,021.1,020.4,000.0,029.6,022.9,018.1,0000.0,0002.58,0005.25,0001.92
2024-04-03 13:36:00,SystemResetWarning,0830.9,4.99,000.00,021.1,020.4,000.0,029.6,022.9,018.3,0000.0,0002.59,0005.31,0001.93
2024-04-03 13:37:00,SystemResetWarning,0831.0,5.01,000.00,021.1,020.4,000.0,029.6,022.9,018.4,0000.0,0002.63,0005.36,0001.94
2024-04-03 13:38:00,SystemResetWarning,0831.0,5.01,000.00,021.1,020.4,000.0,029.6,022.9,018.3,0000.0,0002.61,0005.29,0001.94
2024-04-03 13:39:00,SystemResetWarning,0831.0,5.00,000.00,021.1,020.4,000.0,029.6,022.9,018.4,0000.0,0002.65,0005.43,0001.95
2024-04-03 13:40:00,SystemResetWarning,0831.0,4.99,000.00,021.1,020.4,000.0,029.6,022.9,018.0,0000.0,0002.67,0005.48,0001.94
2024-04-03 13:41:00,SystemResetWarning,0831.1,4.99,000.00,021.1,020.4,000.0,029.6,022.9,018.6,0000.0,0002.68,0005.32,0001.96
2024-04-03 13:42:00,SystemResetWarning,0831.1,5.00,000.00,021.1,020.4,000.0,029.6,022.9,018.5,0000.0,0002.72,0004.84,0001.95
2024-04-03 13:43:00,SystemResetWarning,0831.0,5.01,000.00,021.1,020.4,000.0,029.6,022.9,018.5,0000.0,0002.69,0004.85,0001.95
2024-04-03 13:44:00,SystemResetWarning,0831.1,5.01,000.00,021.1,020.4,000.0,029.6,022.9,018.3,0000.0,0002.72,0004.71,0001.95
2024-04-03 13:45:00,SystemResetWarning,0831.0,5.00,000.00,021.1,020.4,000.0,029.6,022.9,018.1,0000.0,0002.72,0004.37,0001.95
2024-04-03 13:46:00,SystemResetWarning,0831.0,4.99,000.00,021.1,020.4,000.0,029.5,022.9,018.3,0000.0,0002.75,0004.33,0001.97
2024-04-03 13:47:00,SystemResetWarning,0831.0,4.99,000.00,021.1,020.4,000.0,029.5,022.9,018.3,0000.0,0002.78,0004.41,0001.97
2024-04-03 13:48:00,SystemResetWarning,0830.9,5.00,000.00,021.1,020.4,000.0,029.5,022.9,018.5,0000.0,0002.74,0004.50,0001.96
2024-04-03 13:49:00,SystemResetWarning,0830.9,5.00,000.00,021.1,020.4,000.0,029.5,022.9,018.9,0000.0,0002.70,0004.61,0001.96
2024-04-03 13:50:00,SystemResetWarning,0830.9,5.01,000.00,021.1,020.4,000.0,029.6,022.9,018.5,0000.0,0002.71,0004.56,0001.98
2024-04-03 13:51:00,SystemResetWarning,0830.9,5.01,000.00,021.1,020.4,000.0,029.5,022.9,018.2,0000.0,0002.72,0004.58,0001.99
2024-04-03 13:52:00,SystemResetWarning,0830.9,5.00,000.00,021.1,020.4,000.0,029.5,022.9,018.3,0000.0,0002.81,0004.82,0001.98
2024-04-03 13:53:00,SystemResetWarning,0830.9,4.99,000.00,021.1,020.4,000.0,029.5,022.9,018.4,0000.0,0002.76,0004.72,0001.99
2024-04-03 13:54:00,SystemResetWarning,0830.9,5.00,000.00,021.1,020.4,000.0,029.6,022.9,018.8,0000.0,0002.76,0004.64,0001.99
2024-04-03 13:55:00,SystemResetWarning,0830.9,5.00,000.00,021.1,020.4,000.0,029.6,022.9,019.3,0000.0,0002.77,0004.60,0002.01
2024-04-03 13:56:00,SystemResetWarning,0830.9,5.00,000.00,021.1,020.4,000.0,029.5,022.9,019.2,0000.0,0002.80,0004.68,0002.02
2024-04-03 13:57:00,SystemResetWarning,0830.9,5.00,000.00,021.1,020.4,000.0,029.5,022.9,019.0,0000.0,0002.76,0004.66,0002.00
2024-04-03 13:58:00,SystemResetWarning,0830.9,5.00,000.00,021.1,020.4,000.0,029.6,022.9,018.8,0000.0,0002.69,0004.48,0001.98
2024-04-03 13:59:00,SystemResetWarning,0830.9,5.01,000.00,021.1,020.4,000.0,029.5,022.9,019.0,0000.0,0002.63,0004.19,0001.98
